QPF
0.02 0.04 0.06 0.06 0.05 0.06 0.04 0.04 0.04 0.05 0.05 0.06 0.06 0.05 0.05 0.07 0.10 0.14 0.16 0.16 0.12 0.08 0.08 0.06 0.07 0.07 0.07 0.05 0.05 0.07 0.08 0.07 0.06 0.06 0.04 0.05 0.06 0.05 0.03 0.04 0.03 0.02 0.03
0.02 0.02 0.06 0.07 0.05 0.06 0.06 0.06 0.04 0.04 0.04 0.04 0.04 0.03 0.06 0.10 0.15 0.22 0.18 0.12 0.09 0.07 0.05 0.06 0.06 0.05 0.04 0.03 0.04 0.06 0.05 0.05 0.07 0.06 0.06 0.07 0.07 0.06 0.05 0.03 0.02 0.02 0.03
0.01 0.01 0.02 0.05 0.06 0.07 0.09 0.06 0.05 0.05 0.04 0.03 0.04 0.04 0.07 0.10 0.14 0.11 0.09 0.09 0.07 0.05 0.04 0.05 0.06 0.05 0.05 0.04 0.03 0.03 0.03 0.04 0.08 0.09 0.07 0.06 0.07 0.06 0.05 0.03 0.02 0.02 0.03
0.00 0.01 0.01 0.04 0.05 0.07 0.10 0.07 0.06 0.06 0.06 0.05 0.05 0.06 0.05 0.07 0.07 0.06 0.06 0.06 0.04 0.05 0.05 0.05 0.06 0.06 0.06 0.05 0.04 0.03 0.04 0.04 0.05 0.07 0.05 0.03 0.03 0.06 0.05 0.04 0.02 0.03 0.03
0.00 0.01 0.02 0.03 0.06 0.06 0.08 0.08 0.05 0.06 0.07 0.07 0.07 0.06 0.04 0.05 0.06 0.06 0.05 0.04 0.04 0.05 0.06 0.05 0.05 0.06 0.07 0.06 0.05 0.05 0.05 0.04 0.03 0.03 0.02 0.02 0.02 0.05 0.07 0.05 0.03 0.03 0.03
0.00 0.01 0.02 0.03 0.05 0.08 0.08 0.09 0.08 0.07 0.08 0.07 0.06 0.05 0.05 0.05 0.05 0.05 0.04 0.04 0.05 0.06 0.07 0.06 0.04 0.04 0.05 0.05 0.07 0.06 0.05 0.04 0.02 0.02 0.02 0.02 0.02 0.04 0.07 0.07 0.05 0.04 0.04
0.01 0.01 0.02 0.03 0.03 0.05 0.06 0.07 0.09 0.07 0.07 0.05 0.05 0.05 0.05 0.04 0.05 0.05 0.05 0.05 0.06 0.06 0.06 0.06 0.05 0.05 0.05 0.04 0.04 0.05 0.05 0.04 0.02 0.02 0.02 0.02 0.01 0.05 0.07 0.09 0.07 0.05 0.05
0.00 0.01 0.02 0.03 0.03 0.03 0.04 0.05 0.07 0.06 0.06 0.06 0.05 0.05 0.06 0.07 0.07 0.09 0.08 0.06 0.06 0.07 0.07 0.06 0.06 0.06 0.05 0.04 0.03 0.03 0.04 0.04 0.02 0.01 0.01 0.01 0.02 0.04 0.06 0.07 0.07 0.05 0.05
0.00 0.00 0.01 0.02 0.02 0.02 0.03 0.05 0.06 0.07 0.08 0.08 0.06 0.05 0.05 0.06 0.09 0.11 0.09 0.07 0.07 0.09 0.09 0.07 0.07 0.07 0.05 0.03 0.03 0.04 0.04 0.05 0.02 0.01 0.01 0.01 0.03 0.05 0.06 0.07 0.07 0.06 0.05
0.01 0.01 0.01 0.01 0.02 0.02 0.03 0.05 0.07 0.08 0.09 0.09 0.09 0.07 0.07 0.06 0.07 0.08 0.08 0.09 0.09 0.10 0.10 0.09 0.09 0.08 0.07 0.06 0.05 0.06 0.07 0.06 0.03 0.01 0.01 0.01 0.03 0.05 0.06 0.06 0.06 0.06 0.05
0.01 0.02 0.01 0.01 0.01 0.01 0.02 0.04 0.06 0.07 0.07 0.07 0.06 0.06 0.06 0.05 0.05 0.06 0.08 0.09 0.11 0.12 0.13 0.14 0.12 0.10 0.09 0.08 0.07 0.08 0.07 0.04 0.03 0.02 0.01 0.02 0.03 0.06 0.07 0.06 0.06 0.06 0.06
0.01 0.01 0.01 0.00 0.00 0.01 0.01 0.02 0.03 0.04 0.05 0.04 0.03 0.04 0.03 0.04 0.04 0.06 0.08 0.12 0.15 0.18 0.19 0.15 0.13 0.11 0.10 0.08 0.07 0.07 0.05 0.03 0.03 0.02 0.02 0.04 0.04 0.05 0.07 0.07 0.07 0.06 0.06
0.01 0.02 0.02 0.01 0.00 0.01 0.01 0.02 0.02 0.03 0.03 0.03 0.04 0.04 0.05 0.06 0.08 0.10 0.11 0.11 0.14 0.19 0.15 0.13 0.12 0.08 0.07 0.05 0.04 0.04 0.04 0.03 0.03 0.03 0.04 0.06 0.07 0.06 0.07 0.08 0.06 0.06 0.06
0.01 0.02 0.01 0.00 0.00 0.00 0.01 0.01 0.02 0.02 0.03 0.03 0.05 0.05 0.05 0.08 0.09 0.09 0.08 0.07 0.07 0.08 0.07 0.07 0.07 0.05 0.05 0.05 0.04 0.03 0.04 0.04 0.04 0.05 0.05 0.08 0.08 0.07 0.07 0.08 0.06 0.07 0.08
0.02 0.01 0.00 0.00 0.00 0.01 0.01 0.01 0.01 0.01 0.01 0.01 0.02 0.03 0.03 0.04 0.04 0.04 0.04 0.04 0.03 0.04 0.06 0.07 0.06 0.05 0.05 0.04 0.04 0.04 0.04 0.04 0.05 0.04 0.04 0.07 0.09 0.08 0.08 0.07 0.06 0.07 0.09
0.03 0.01 0.00 0.00 0.01 0.02 0.02 0.02 0.03 0.03 0.02 0.01 0.01 0.02 0.02 0.03 0.04 0.04 0.04 0.04 0.04 0.04 0.05 0.05 0.04 0.04 0.07 0.06 0.05 0.07 0.08 0.08 0.07 0.05 0.04 0.05 0.07 0.08 0.08 0.06 0.06 0.07 0.08
0.01 0.01 0.00 0.01 0.01 0.01 0.01 0.01 0.01 0.03 0.04 0.03 0.02 0.01 0.01 0.02 0.02 0.02 0.02 0.02 0.02 0.02 0.02 0.03 0.02 0.02 0.03 0.03 0.04 0.05 0.07 0.08 0.09 0.07 0.05 0.04 0.05 0.07 0.08 0.07 0.07 0.08 0.09
0.01 0.00 0.00 0.00 0.00 0.01 0.01 0.01 0.00 0.00 0.01 0.01 0.01 0.01 0.02 0.01 0.01 0.01 0.01 0.01 0.01 0.01 0.01 0.02 0.02 0.04 0.03 0.03 0.03 0.03 0.04 0.04 0.05 0.07 0.05 0.04 0.04 0.05 0.06 0.07 0.07 0.08 0.10
0.01 0.00 0.00 0.00 0.01 0.03 0.02 0.02 0.01 0.00 0.00 0.01 0.01 0.01 0.02 0.02 0.02 0.01 0.01 0.02 0.02 0.01 0.01 0.02 0.03 0.05 0.04 0.03 0.03 0.02 0.02 0.04 0.05 0.05 0.04 0.03 0.03 0.04 0.05 0.06 0.08 0.08 0.09
0.00 0.00 0.00 0.00 0.00 0.01 0.01 0.01 0.02 0.01 0.00 0.01 0.01 0.01 0.01 0.01 0.02 0.03 0.03 0.03 0.03 0.03 0.02 0.03 0.03 0.03 0.04 0.03 0.02 0.02 0.03 0.03 0.04 0.04 0.03 0.04 0.05 0.04 0.04 0.05 0.06 0.06 0.08
0.00 0.00 0.00 0.00 0.00 0.01 0.01 0.00 0.01 0.00 0.00 0.01 0.01 0.01 0.01 0.01 0.02 0.03 0.02 0.03 0.04 0.03 0.02 0.03 0.03 0.03 0.03 0.04 0.03 0.03 0.03 0.04 0.04 0.04 0.04 0.05 0.06 0.05 0.04 0.04 0.05 0.06 0.06
0.00 0.00 0.00 0.00 0.00 0.01 0.00 0.01 0.01 0.01 0.01 0.02 0.02 0.01 0.01 0.01 0.01 0.02 0.03 0.04 0.04 0.02 0.02 0.03 0.04 0.03 0.03 0.03 0.02 0.02 0.02 0.02 0.03 0.04 0.06 0.06 0.06 0.05 0.04 0.04 0.04 0.06 0.07
0.01 0.00 0.00 0.01 0.01 0.01 0.00 0.01 0.01 0.01 0.01 0.02 0.02 0.02 0.02 0.01 0.02 0.03 0.03 0.04 0.04 0.03 0.04 0.04 0.04 0.03 0.02 0.01 0.01 0.01 0.02 0.01 0.02 0.03 0.04 0.06 0.06 0.07 0.08 0.07 0.05 0.04 0.04
0.01 0.01 0.01 0.01 0.01 0.02 0.01 0.01 0.01 0.02 0.02 0.02 0.02 0.02 0.03 0.03 0.03 0.03 0.03 0.03 0.04 0.05 0.06 0.05 0.04 0.03 0.02 0.01 0.01 0.01 0.01 0.01 0.01 0.02 0.02 0.03 0.03 0.04 0.07 0.08 0.07 0.05 0.06
0.02 0.02 0.02 0.02 0.01 0.02 0.03 0.04 0.04 0.03 0.04 0.04 0.04 0.04 0.03 0.03 0.03 0.02 0.01 0.02 0.03 0.06 0.07 0.05 0.03 0.02 0.02 0.01 0.01 0.01 0.01 0.01 0.01 0.02 0.02 0.02 0.03 0.05 0.07 0.09 0.09 0.08 0.07
0.03 0.03 0.03 0.02 0.02 0.03 0.05 0.08 0.09 0.10 0.09 0.07 0.05 0.04 0.03 0.03 0.03 0.02 0.02 0.02 0.03 0.05 0.04 0.03 0.03 0.03 0.02 0.02 0.02 0.01 0.01 0.01 0.01 0.02 0.01 0.01 0.03 0.04 0.06 0.07 0.06 0.05 0.05
MSLP
1010.60 1010.16 1009.91 1009.86 1009.93 1010.07 1010.19 1010.23 1010.16 1009.99 1009.76 1009.51 1009.27 1009.07 1008.88 1008.66 1008.37 1007.99 1007.51 1006.98 1006.47 1006.07 1005.85 1005.88 1006.15 1006.65 1007.31 1008.05 1008.79 1009.47 1010.08 1010.60 1011.06 1011.48 1011.89 1012.30 1012.71 1013.08 1013.41 1013.69 1013.91 1014.09 1014.26
1010.55 1010.19 1010.00 1009.99 1010.09 1010.25 1010.38 1010.43 1010.37 1010.21 1009.98 1009.76 1009.56 1009.42 1009.32 1009.22 1009.09 1008.88 1008.58 1008.23 1007.87 1007.58 1007.40 1007.40 1007.58 1007.94 1008.42 1008.96 1009.51 1010.04 1010.52 1010.95 1011.36 1011.76 1012.16 1012.56 1012.95 1013.30 1013.61 1013.86 1014.06 1014.23 1014.40
1010.47 1010.19 1010.06 1010.09 1010.23 1010.41 1010.56 1010.63 1010.59 1010.45 1010.26 1010.06 1009.91 1009.81 1009.77 1009.76 1009.72 1009.64 1009.48 1009.26 1009.03 1008.82 1008.68 1008.67 1008.78 1009.02 1009.35 1009.73 1010.13 1010.53 1010.91 1011.29 1011.67 1012.06 1012.46 1012.85 1013.22 1013.56 1013.84 1014.06 1014.25 1014.42 1014.60
1010.40 1010.20 1010.13 1010.19 1010.36 1010.57 1010.74 1010.83 1010.82 1010.72 1010.57 1010.40 1010.28 1010.21 1010.20 1010.22 1010.24 1010.22 1010.15 1010.03 1009.88 1009.74 1009.65 1009.64 1009.71 1009.87 1010.10 1010.36 1010.66 1010.96 1011.28 1011.62 1011.99 1012.38 1012.78 1013.17 1013.52 1013.83 1014.09 1014.29 1014.47 1014.65 1014.85
1010.39 1010.24 1010.22 1010.32 1010.50 1010.73 1010.92 1011.04 1011.06 1011.00 1010.88 1010.75 1010.65 1010.59 1010.58 1010.61 1010.63 1010.64 1010.61 1010.54 1010.46 1010.38 1010.34 1010.34 1010.41 1010.53 1010.69 1010.89 1011.11 1011.36 1011.64 1011.96 1012.31 1012.70 1013.10 1013.48 1013.82 1014.11 1014.34 1014.53 1014.70 1014.88 1015.10
1010.47 1010.37 1010.37 1010.49 1010.68 1010.90 1011.10 1011.23 1011.28 1011.26 1011.18 1011.08 1011.00 1010.95 1010.93 1010.93 1010.94 1010.94 1010.92 1010.89 1010.84 1010.82 1010.82 1010.86 1010.94 1011.05 1011.18 1011.34 1011.52 1011.73 1011.98 1012.28 1012.62 1013.00 1013.39 1013.76 1014.09 1014.35 1014.56 1014.74 1014.90 1015.09 1015.34
1010.68 1010.60 1010.61 1010.72 1010.90 1011.10 1011.29 1011.42 1011.49 1011.49 1011.44 1011.38 1011.31 1011.27 1011.24 1011.22 1011.21 1011.19 1011.16 1011.14 1011.12 1011.13 1011.18 1011.25 1011.35 1011.47 1011.60 1011.73 1011.88 1012.06 1012.28 1012.56 1012.89 1013.26 1013.63 1013.99 1014.30 1014.55 1014.74 1014.90 1015.07 1015.26 1015.51
1011.00 1010.93 1010.93 1011.02 1011.17 1011.34 1011.49 1011.61 1011.67 1011.68 1011.66 1011.63 1011.59 1011.56 1011.53 1011.50 1011.47 1011.43 1011.39 1011.36 1011.36 1011.40 1011.47 1011.58 1011.70 1011.83 1011.95 1012.07 1012.19 1012.34 1012.53 1012.78 1013.09 1013.43 1013.80 1014.14 1014.44 1014.68 1014.87 1015.03 1015.19 1015.38 1015.64
1011.38 1011.32 1011.32 1011.38 1011.49 1011.60 1011.71 1011.79 1011.83 1011.85 1011.85 1011.84 1011.83 1011.82 1011.81 1011.78 1011.74 1011.69 1011.64 1011.61 1011.61 1011.65 1011.74 1011.86 1011.99 1012.12 1012.23 1012.33 1012.43 1012.55 1012.71 1012.92 1013.20 1013.53 1013.88 1014.22 1014.52 1014.76 1014.96 1015.12 1015.29 1015.47 1015.72
1011.77 1011.73 1011.73 1011.77 1011.83 1011.89 1011.94 1011.97 1011.98 1011.99 1011.99 1012.01 1012.04 1012.06 1012.07 1012.06 1012.03 1011.97 1011.91 1011.87 1011.86 1011.89 1011.97 1012.08 1012.21 1012.32 1012.42 1012.50 1012.58 1012.67 1012.80 1012.99 1013.25 1013.56 1013.90 1014.24 1014.55 1014.82 1015.03 1015.21 1015.38 1015.56 1015.79
1012.12 1012.10 1012.12 1012.14 1012.17 1012.18 1012.18 1012.15 1012.13 1012.11 1012.12 1012.15 1012.21 1012.27 1012.31 1012.33 1012.31 1012.26 1012.19 1012.13 1012.10 1012.11 1012.16 1012.25 1012.35 1012.45 1012.53 1012.59 1012.65 1012.72 1012.83 1013.01 1013.25 1013.56 1013.90 1014.25 1014.58 1014.87 1015.11 1015.31 1015.49 1015.67 1015.88
1012.36 1012.39 1012.43 1012.46 1012.47 1012.45 1012.40 1012.33 1012.27 1012.23 1012.23 1012.27 1012.35 1012.43 1012.51 1012.56 1012.56 1012.52 1012.45 1012.38 1012.32 1012.29 1012.31 1012.36 1012.42 1012.50 1012.56 1012.62 1012.67 1012.74 1012.85 1013.02 1013.26 1013.56 1013.91 1014.27 1014.62 1014.94 1015.21 1015.44 1015.63 1015.82 1016.01
1012.49 1012.57 1012.65 1012.70 1012.70 1012.66 1012.58 1012.48 1012.39 1012.32 1012.31 1012.36 1012.44 1012.55 1012.66 1012.73 1012.76 1012.74 1012.67 1012.58 1012.50 1012.44 1012.41 1012.42 1012.46 1012.50 1012.56 1012.62 1012.68 1012.76 1012.89 1013.06 1013.31 1013.61 1013.96 1014.33 1014.69 1015.03 1015.32 1015.58 1015.79 1015.98 1016.16
1012.50 1012.63 1012.75 1012.82 1012.84 1012.80 1012.71 1012.60 1012.48 1012.40 1012.37 1012.41 1012.50 1012.62 1012.74 1012.84 1012.89 1012.88 1012.83 1012.74 1012.64 1012.55 1012.49 1012.47 1012.48 1012.52 1012.58 1012.65 1012.73 1012.84 1012.99 1013.18 1013.42 1013.72 1014.05 1014.41 1014.77 1015.11 1015.42 1015.69 1015.92 1016.12 1016.30
1012.41 1012.57 1012.72 1012.83 1012.87 1012.85 1012.77 1012.66 1012.54 1012.45 1012.40 1012.42 1012.50 1012.62 1012.75 1012.87 1012.94 1012.97 1012.93 1012.86 1012.76 1012.66 1012.59 1012.55 1012.54 1012.58 1012.65 1012.74 1012.86 1012.99 1013.16 1013.36 1013.60 1013.88 1014.19 1014.51 1014.85 1015.17 1015.48 1015.75 1015.99 1016.21 1016.40
1012.25 1012.42 1012.59 1012.72 1012.79 1012.80 1012.75 1012.66 1012.56 1012.46 1012.41 1012.41 1012.47 1012.57 1012.70 1012.83 1012.93 1012.98 1012.99 1012.95 1012.87 1012.79 1012.72 1012.67 1012.67 1012.71 1012.80 1012.91 1013.06 1013.22 1013.41 1013.61 1013.83 1014.07 1014.33 1014.60 1014.89 1015.18 1015.46 1015.72 1015.98 1016.21 1016.42
1012.04 1012.21 1012.38 1012.52 1012.62 1012.68 1012.67 1012.62 1012.54 1012.46 1012.40 1012.38 1012.41 1012.49 1012.60 1012.73 1012.86 1012.95 1013.01 1013.02 1012.99 1012.94 1012.89 1012.86 1012.87 1012.92 1013.02 1013.15 1013.31 1013.50 1013.69 1013.88 1014.07 1014.26 1014.46 1014.66 1014.88 1015.11 1015.36 1015.61 1015.87 1016.12 1016.35
1011.83 1011.97 1012.12 1012.27 1012.40 1012.49 1012.54 1012.55 1012.51 1012.46 1012.39 1012.35 1012.35 1012.39 1012.49 1012.61 1012.75 1012.89 1013.00 1013.08 1013.11 1013.12 1013.11 1013.10 1013.12 1013.18 1013.29 1013.43 1013.60 1013.78 1013.96 1014.13 1014.28 1014.42 1014.54 1014.68 1014.82 1015.00 1015.20 1015.43 1015.69 1015.96 1016.22
1011.62 1011.72 1011.84 1011.99 1012.14 1012.29 1012.41 1012.48 1012.50 1012.47 1012.41 1012.35 1012.32 1012.32 1012.38 1012.50 1012.65 1012.82 1012.99 1013.13 1013.23 1013.30 1013.34 1013.37 1013.40 1013.47 1013.57 1013.70 1013.87 1014.04 1014.21 1014.35 1014.46 1014.54 1014.61 1014.67 1014.75 1014.87 1015.03 1015.24 1015.49 1015.77 1016.06
1011.42 1011.48 1011.58 1011.72 1011.90 1012.09 1012.28 1012.42 1012.50 1012.51 1012.47 1012.40 1012.33 1012.30 1012.32 1012.41 1012.56 1012.76 1012.98 1013.18 1013.35 1013.48 1013.56 1013.62 1013.67 1013.74 1013.83 1013.95 1014.10 1014.26 1014.41 1014.53 1014.61 1014.65 1014.66 1014.67 1014.70 1014.77 1014.90 1015.08 1015.33 1015.61 1015.91
1011.24 1011.27 1011.34 1011.48 1011.68 1011.92 1012.17 1012.38 1012.53 1012.60 1012.58 1012.50 1012.41 1012.33 1012.31 1012.37 1012.51 1012.72 1012.97 1013.22 1013.45 1013.63 1013.75 1013.84 1013.90 1013.96 1014.04 1014.14 1014.27 1014.42 1014.55 1014.66 1014.73 1014.75 1014.74 1014.71 1014.71 1014.74 1014.84 1015.01 1015.24 1015.52 1015.83
1011.08 1011.09 1011.15 1011.28 1011.50 1011.78 1012.09 1012.37 1012.58 1012.70 1012.72 1012.65 1012.53 1012.42 1012.36 1012.38 1012.50 1012.71 1012.97 1013.26 1013.52 1013.73 1013.89 1013.99 1014.06 1014.11 1014.18 1014.26 1014.38 1014.52 1014.65 1014.76 1014.84 1014.86 1014.85 1014.82 1014.80 1014.82 1014.89 1015.03 1015.24 1015.51 1015.80
1010.93 1010.94 1010.99 1011.12 1011.35 1011.66 1012.00 1012.34 1012.62 1012.80 1012.85 1012.80 1012.68 1012.54 1012.45 1012.44 1012.53 1012.71 1012.97 1013.26 1013.54 1013.78 1013.95 1014.06 1014.13 1014.17 1014.23 1014.31 1014.42 1014.57 1014.71 1014.85 1014.95 1015.00 1015.01 1014.99 1014.98 1014.98 1015.03 1015.14 1015.32 1015.55 1015.82
1010.78 1010.81 1010.85 1010.97 1011.20 1011.51 1011.89 1012.27 1012.60 1012.83 1012.93 1012.90 1012.80 1012.66 1012.55 1012.50 1012.56 1012.72 1012.96 1013.24 1013.51 1013.75 1013.92 1014.04 1014.10 1014.14 1014.19 1014.27 1014.40 1014.55 1014.73 1014.90 1015.04 1015.14 1015.19 1015.20 1015.20 1015.20 1015.23 1015.31 1015.44 1015.62 1015.84
1010.62 1010.67 1010.71 1010.82 1011.02 1011.33 1011.71 1012.12 1012.49 1012.76 1012.91 1012.93 1012.85 1012.73 1012.61 1012.55 1012.58 1012.71 1012.92 1013.17 1013.42 1013.64 1013.81 1013.91 1013.97 1014.01 1014.06 1014.15 1014.29 1014.47 1014.69 1014.90 1015.10 1015.25 1015.35 1015.40 1015.42 1015.42 1015.43 1015.47 1015.55 1015.67 1015.83
1010.44 1010.50 1010.54 1010.62 1010.80 1011.08 1011.45 1011.86 1012.26 1012.57 1012.77 1012.84 1012.81 1012.71 1012.61 1012.55 1012.56 1012.66 1012.83 1013.05 1013.27 1013.47 1013.61 1013.70 1013.76 1013.79 1013.85 1013.95 1014.10 1014.32 1014.57 1014.84 1015.09 1015.30 1015.45 1015.54 1015.58 1015.59 1015.59 1015.59 1015.62 1015.69 1015.78
Thickness
5787 5790 5790 5790 5790 5790 5791 5791 5790 5790 5790 5790 5789 5789 5789 5787 5786 5785 5784 5783 5782 5781 5780 5779 5779 5777 5776 5776 5775 5774 5773 5772 5771 5770 5768 5767 5766 5765 5764 5763 5762 5761 5760
5792 5791 5791 5790 5789 5789 5790 5790 5790 5790 5789 5789 5788 5788 5787 5786 5785 5784 5783 5782 5781 5780 5779 5778 5777 5776 5775 5775 5774 5773 5772 5771 5770 5769 5768 5767 5766 5765 5763 5763 5762 5761 5759
5794 5792 5791 5790 5789 5789 5789 5790 5790 5789 5788 5788 5787 5786 5786 5785 5784 5783 5782 5781 5780 5779 5778 5777 5776 5775 5774 5774 5773 5772 5771 5770 5769 5768 5767 5766 5765 5764 5763 5762 5761 5760 5759
5794 5792 5791 5790 5789 5788 5788 5789 5789 5788 5788 5787 5786 5785 5784 5784 5783 5782 5781 5780 5779 5778 5777 5776 5775 5774 5773 5772 5772 5771 5770 5769 5768 5767 5765 5764 5764 5763 5762 5761 5760 5759 5758
5794 5792 5791 5790 5788 5788 5788 5788 5788 5788 5787 5786 5786 5785 5784 5783 5781 5780 5779 5778 5777 5776 5775 5775 5773 5773 5772 5771 5770 5770 5769 5768 5766 5765 5764 5763 5762 5762 5761 5760 5759 5758 5757
5793 5792 5791 5790 5789 5788 5787 5787 5787 5787 5786 5786 5785 5784 5783 5782 5781 5779 5778 5777 5775 5774 5773 5773 5772 5771 5770 5770 5769 5768 5768 5767 5765 5764 5763 5762 5761 5761 5760 5759 5758 5757 5756
5792 5791 5790 5789 5789 5788 5787 5787 5786 5786 5785 5785 5784 5783 5783 5782 5780 5779 5777 5775 5774 5773 5772 5771 5771 5770 5769 5769 5768 5767 5767 5766 5764 5763 5762 5761 5760 5760 5759 5758 5757 5756 5755
5793 5791 5790 5789 5788 5787 5787 5786 5785 5785 5784 5784 5783 5782 5781 5781 5780 5778 5776 5775 5773 5772 5771 5770 5769 5769 5768 5767 5767 5766 5766 5765 5763 5762 5761 5760 5760 5759 5759 5758 5756 5755 5754
5792 5790 5789 5788 5787 5786 5786 5785 5785 5784 5783 5783 5782 5781 5780 5779 5778 5777 5776 5774 5773 5772 5770 5769 5768 5768 5767 5766 5766 5765 5765 5764 5762 5761 5760 5759 5759 5758 5758 5757 5756 5754 5754
5790 5789 5788 5788 5787 5786 5785 5785 5784 5784 5783 5782 5781 5780 5779 5779 5777 5776 5775 5773 5772 5771 5770 5769 5768 5768 5767 5766 5766 5765 5764 5763 5762 5760 5759 5759 5758 5758 5757 5757 5755 5754 5753
5788 5788 5788 5787 5787 5786 5785 5785 5784 5783 5782 5781 5780 5779 5778 5777 5776 5775 5774 5773 5772 5771 5770 5769 5768 5767 5766 5765 5765 5764 5763 5761 5760 5759 5759 5758 5757 5757 5757 5756 5755 5754 5753
5786 5787 5787 5787 5786 5786 5785 5784 5784 5783 5782 5781 5779 5778 5777 5776 5775 5774 5773 5772 5771 5770 5769 5768 5767 5766 5765 5764 5764 5763 5762 5760 5759 5758 5758 5757 5757 5756 5756 5755 5754 5753 5752
5788 5788 5788 5787 5786 5785 5785 5784 5783 5782 5781 5780 5778 5777 5776 5775 5774 5773 5772 5771 5770 5769 5768 5767 5766 5765 5764 5763 5762 5761 5761 5759 5758 5757 5756 5756 5756 5756 5755 5754 5754 5753 5752
5789 5789 5789 5788 5786 5785 5784 5783 5782 5781 5780 5779 5778 5776 5775 5774 5773 5771 5770 5769 5769 5768 5767 5766 5765 5764 5764 5763 5761 5760 5759 5758 5757 5756 5755 5755 5755 5754 5754 5753 5753 5752 5751
5791 5790 5790 5789 5787 5786 5784 5783 5782 5781 5779 5778 5777 5776 5775 5773 5771 5770 5769 5768 5767 5766 5766 5764 5764 5763 5762 5761 5760 5759 5758 5757 5756 5755 5754 5754 5753 5753 5752 5752 5751 5751 5750
5793 5792 5792 5790 5788 5786 5784 5783 5782 5781 5779 5778 5777 5775 5774 5772 5771 5770 5768 5767 5766 5766 5765 5763 5762 5761 5760 5759 5759 5758 5757 5756 5755 5754 5753 5752 5752 5751 5750 5750 5749 5748 5748
5796 5795 5793 5792 5789 5787 5785 5783 5782 5781 5779 5777 5776 5775 5774 5773 5771 5770 5768 5766 5765 5765 5763 5762 5761 5760 5758 5757 5756 5756 5755 5754 5753 5752 5751 5751 5750 5750 5749 5748 5747 5746 5746
5798 5796 5795 5794 5791 5788 5786 5784 5783 5781 5779 5778 5776 5775 5774 5773 5771 5769 5767 5766 5765 5763 5762 5760 5759 5756 5755 5754 5753 5753 5753 5753 5752 5751 5750 5749 5748 5747 5746 5745 5745 5744 5743
5801 5798 5795 5794 5792 5790 5787 5784 5783 5781 5779 5778 5776 5775 5774 5773 5771 5769 5767 5765 5763 5761 5760 5759 5757 5755 5752 5751 5751 5751 5751 5750 5749 5749 5748 5746 5745 5744 5744 5743 5742 5742 5741
5803 5800 5797 5795 5793 5791 5788 5784 5782 5780 5779 5778 5776 5775 5774 5772 5771 5768 5766 5764 5762 5760 5757 5756 5754 5752 5750 5749 5749 5748 5747 5747 5746 5746 5745 5744 5742 5742 5740 5739 5738 5738 5738
5802 5800 5797 5795 5793 5790 5787 5783 5779 5777 5777 5776 5775 5774 5773 5772 5770 5768 5765 5763 5760 5757 5755 5753 5751 5749 5746 5746 5743 5741 5742 5743 5743 5742 5742 5741 5739 5738 5737 5736 5735 5734 5734
5803 5800 5798 5796 5794 5791 5789 5786 5782 5779 5777 5776 5775 5773 5772 5771 5769 5767 5764 5761 5758 5755 5752 5750 5748 5745 5743 5742 5739 5734 5731 5733 5736 5738 5737 5736 5735 5734 5733 5733 5732 5731 5730
5802 5800 5800 5797 5794 5791 5789 5785 5782 5778 5775 5773 5771 5771 5770 5769 5767 5765 5763 5760 5757 5754 5750 5747 5745 5742 5739 5737 5737 5732 5726 5722 5726 5730 5731 5731 5731 5730 5729 5729 5728 5727 5727
5805 5803 5800 5796 5793 5791 5788 5784 5780 5775 5771 5771 5770 5770 5769 5768 5765 5763 5761 5759 5756 5752 5749 5746 5744 5741 5738 5734 5733 5731 5729 5726 5721 5720 5723 5725 5726 5725 5725 5725 5724 5723 5723
5806 5803 5800 5796 5792 5790 5788 5784 5780 5776 5773 5771 5770 5768 5767 5766 5764 5762 5760 5757 5754 5751 5747 5745 5742 5739 5737 5733 5730 5728 5725 5723 5721 5716 5714 5717 5719 5720 5720 5720 5719 5719 5718
5805 5802 5799 5795 5791 5789 5787 5783 5780 5776 5773 5769 5767 5765 5764 5763 5761 5760 5757 5754 5751 5748 5746 5743 5740 5737 5734 5731 5729 5726 5723 5720 5717 5715 5711 5710 5711 5713 5715 5716 5715 5715 5714